EW2754 Beijing CN current weather conditions

sailwx.info

Wind from 140

Air temperature 10.0° C
Dewpoint -7.7° C

Last reported at 2017-Nov-20 06:00 UTC.
Time now 2017-Nov-20 06:24 UTC

Location: N 40°06' E 116°30'.
View on Google Maps.

See reports from other nearby stations

  
Tides and Currents Weather Stations Pressure Air Temp Water Temp Dewpoint Dewpoint Depression Visibility Wind Speed Wind Dir Waves Ship Positions
date/time (UTC)wind fromknots sea level pressurealtimeterstation pressurevisibilityair tempwater tempwave heightnotes
2017-Nov-20 06:00 140 10.0
2017-Nov-20 05:50 093 10.0
2017-Nov-20 05:40 130 8.9
2017-Nov-20 05:30 150 2 gusting 6 8.9
2017-Nov-20 05:20 159 8.9
2017-Nov-20 05:10 118 8.9
2017-Nov-20 05:00 161 8.3
2017-Nov-20 04:50 087 8.3
2017-Nov-20 04:40 087 7.8
2017-Nov-20 04:30 066 7.8
2017-Nov-20 04:20 121 7.8
2017-Nov-20 04:10 127 7.2
2017-Nov-20 04:00 165 6.7
2017-Nov-20 03:50 163 6.1
2017-Nov-20 03:40 355 6.1
2017-Nov-20 03:30 355 5.6
2017-Nov-20 03:20 355 5.0
2017-Nov-20 03:10 355 4.4
2017-Nov-20 03:00 350 4.4
2017-Nov-20 02:50 355 3.3
2017-Nov-20 02:40 220 2.8
2017-Nov-20 02:30 212 2.2
2017-Nov-20 02:10 270 1.1
2017-Nov-20 02:00 254 1.1
2017-Nov-20 01:50 346 1.1
2017-Nov-20 01:40 286 0.6
2017-Nov-20 01:30 299 -0.0
2017-Nov-20 01:20 179 -0.0
2017-Nov-20 01:10 167 -0.6
2017-Nov-20 01:00 261 -1.1
2017-Nov-20 00:50 256 -1.7
2017-Nov-20 00:40 216 -1.7
2017-Nov-20 00:30 104 -0.6
2017-Nov-20 00:20 098 -1.1
2017-Nov-20 00:10 060 -1.1
2017-Nov-20 00:00 031 2 gusting 7 -1.7
2017-Nov-19 23:50 011 1 gusting 6 -2.2
2017-Nov-19 23:40 048 0 gusting 5 -2.8
2017-Nov-19 23:30 205 -3.3
2017-Nov-19 23:20 206 -3.3
2017-Nov-19 23:10 206 -3.3
2017-Nov-19 23:00 206 -3.3
2017-Nov-19 22:50 205 -3.3
2017-Nov-19 22:40 205 -3.3
2017-Nov-19 22:30 204 -3.3
2017-Nov-19 22:20 205 -3.3
2017-Nov-19 22:10 204 -2.8
2017-Nov-19 22:00 013 -2.2
2017-Nov-19 21:50 044 -2.8
2017-Nov-19 21:40 046 -2.8
2017-Nov-19 21:30 046 -2.8
2017-Nov-19 21:20 046 -2.8
2017-Nov-19 21:10 298 -2.8
2017-Nov-19 21:00 292 -2.8
2017-Nov-19 20:50 292 -2.8
2017-Nov-19 20:40 292 -2.8
2017-Nov-19 20:30 292 -2.8
2017-Nov-19 20:20 292 -2.8
2017-Nov-19 20:10 292 -2.8
2017-Nov-19 20:00 293 -2.2
2017-Nov-19 19:50 342 -1.7
2017-Nov-19 19:40 316 -1.7
2017-Nov-19 19:30 057 -1.7
2017-Nov-19 19:20 063 -1.1
2017-Nov-19 19:10 064 -1.1
2017-Nov-19 19:00 064 -1.1
2017-Nov-19 18:50 036 -1.1
2017-Nov-19 18:40 056 0 gusting 3 -1.1
2017-Nov-19 18:30 054 -1.1
2017-Nov-19 18:20 055 -1.1
2017-Nov-19 18:10 055 -1.7
2017-Nov-19 18:00 055 -1.7
2017-Nov-19 17:50 055 -1.7
2017-Nov-19 17:40 055 -1.7
2017-Nov-19 17:30 055 -1.7
2017-Nov-19 17:20 055 -1.7
2017-Nov-19 17:10 054 -1.7
2017-Nov-19 17:00 015 -1.7
2017-Nov-19 16:50 015 -1.7
2017-Nov-19 16:40 015 -1.7
2017-Nov-19 16:30 015 -1.7
2017-Nov-19 16:20 015 -1.7
2017-Nov-19 16:10 011 -1.7
2017-Nov-19 16:00 011 -1.1
2017-Nov-19 15:50 012 -1.1
2017-Nov-19 15:40 012 -1.1
2017-Nov-19 15:30 012 -1.1
2017-Nov-19 15:20 139 -1.7
2017-Nov-19 15:10 143 -1.7
2017-Nov-19 15:00 143 -1.1
2017-Nov-19 14:50 123 -1.1
2017-Nov-19 14:40 123 -0.6
2017-Nov-19 14:30 122 -0.6
2017-Nov-19 14:20 122 -0.0
2017-Nov-19 14:10 122 -0.0
2017-Nov-19 14:00 122 -0.0
2017-Nov-19 13:50 122 -0.0
2017-Nov-19 13:40 122 0.6
2017-Nov-19 13:30 122 0.6
2017-Nov-19 13:20 122 0.6
2017-Nov-19 13:10 122 1.1
2017-Nov-19 13:00 122 1.1
2017-Nov-19 12:50 122 1.1
2017-Nov-19 12:40 122 1.7
2017-Nov-19 12:30 123 1.7
2017-Nov-19 12:20 122 1.7
2017-Nov-19 12:10 123 1.7
2017-Nov-19 12:00 123 1.7
2017-Nov-19 11:50 123 2.2
2017-Nov-19 11:40 123 2.2
2017-Nov-19 11:30 123 2.2
2017-Nov-19 11:20 123 2.2
2017-Nov-19 11:10 123 2.2
2017-Nov-19 11:00 123 2.2
2017-Nov-19 10:50 123 2.2
2017-Nov-19 10:40 123 2.2
2017-Nov-19 10:30 123 2.2
2017-Nov-19 10:20 123 2.8
2017-Nov-19 10:10 123 2.8
2017-Nov-19 10:00 123 2.8
2017-Nov-19 09:50 124 2.8
2017-Nov-19 09:40 125 2.8
2017-Nov-19 09:30 126 2.8
2017-Nov-19 09:20 126 3.3
2017-Nov-19 09:10 116 3.3
2017-Nov-19 09:00 115 3.3
2017-Nov-19 08:50 118 3.9
2017-Nov-19 08:40 114 3.9
2017-Nov-19 08:30 111 3.9
2017-Nov-19 08:20 126 1 gusting 5 3.9
2017-Nov-19 08:10 117 4.4
2017-Nov-19 08:00 130 4.4
2017-Nov-19 07:50 147 0 gusting 6 4.4
2017-Nov-19 07:40 134 4.4
2017-Nov-19 07:30 113 2 gusting 6 5.0
2017-Nov-19 07:20 127 0 gusting 4 5.0
2017-Nov-19 07:10 120 0 gusting 3 5.0
2017-Nov-19 07:00 134 0 gusting 4 5.0
2017-Nov-19 06:50 138 0 gusting 5 4.4
2017-Nov-19 06:40 111 4.4
2017-Nov-19 06:30 158 4.4
2017-Nov-19 06:20 156 5.0
2017-Nov-19 06:10 096 0 gusting 5 5.0
2017-Nov-19 06:00 146 0 gusting 5 5.0
2017-Nov-19 05:50 140 0 gusting 6 4.4
2017-Nov-19 05:40 121 0 gusting 5 4.4
2017-Nov-19 05:30 139 4.4
2017-Nov-19 05:20 131 4.4
2017-Nov-19 05:10 140 4.4
2017-Nov-19 05:00 104 0 gusting 4 3.9
2017-Nov-19 04:50 143 0 gusting 2 3.3
2017-Nov-19 04:40 143 0 gusting 5 2.8
2017-Nov-19 04:30 153 2.8
2017-Nov-19 04:20 126 2.8
2017-Nov-19 04:10 174 0 gusting 5 2.2
2017-Nov-19 04:00 134 2.2
2017-Nov-19 03:50 134 1.7
2017-Nov-19 03:40 121 0 gusting 5 1.7
2017-Nov-19 03:30 098 1.1
2017-Nov-19 03:20 098 0 gusting 4 1.1
2017-Nov-19 03:10 117 3 gusting 5 1.1
2017-Nov-19 03:00 102 1 gusting 6 1.1
2017-Nov-19 02:50 071 2 gusting 5 0.6
2017-Nov-19 02:40 052 0.6
2017-Nov-19 02:30 082 1 gusting 5 -0.0
2017-Nov-19 02:20 052 0 gusting 6 -0.0
2017-Nov-19 02:10 038 3 gusting 6 -0.6
2017-Nov-19 02:00 056 4 gusting 6 -0.6
2017-Nov-19 01:50 051 1 gusting 8 -0.6
2017-Nov-19 01:40 075 4 gusting 6 -0.6
2017-Nov-19 01:30 015 1 gusting 5 -0.6
2017-Nov-19 01:20 030 2 gusting 5 -0.6
2017-Nov-19 01:10 082 -1.1
2017-Nov-19 01:00 054 3 gusting 8 -1.1
2017-Nov-19 00:50 073 1 gusting 4 -1.7
2017-Nov-19 00:40 036 0 gusting 6 -1.7
2017-Nov-19 00:30 012 -1.7
2017-Nov-19 00:20 042 2 gusting 6 -2.2
2017-Nov-19 00:10 355 3 gusting 7 -2.2
2017-Nov-19 00:00 061 1 gusting 6 -2.2
2017-Nov-18 23:50 355 1 gusting 5 -2.2
2017-Nov-18 23:40 100 -2.8
2017-Nov-18 23:30 105 -2.8
2017-Nov-18 23:20 017 -2.8
2017-Nov-18 23:10 036 3 gusting 6 -2.8
2017-Nov-18 23:00 014 3 gusting 7 -2.8
2017-Nov-18 22:50 009 3 gusting 6 -2.8
2017-Nov-18 22:40 019 0 gusting 4 -2.8
2017-Nov-18 22:30 343 -2.8
2017-Nov-18 22:20 027 0 gusting 4 -2.8
2017-Nov-18 22:10 037 2 gusting 6 -2.8
2017-Nov-18 22:00 355 2 gusting 6 -2.2
2017-Nov-18 21:50 335 1 gusting 4 -2.2
2017-Nov-18 21:40 030 -2.2
2017-Nov-18 21:30 051 -2.2
2017-Nov-18 21:20 148 -2.2
2017-Nov-18 21:10 147 -2.2
2017-Nov-18 21:00 148 -2.2
2017-Nov-18 20:50 195 -2.2
2017-Nov-18 20:40 044 -2.2
2017-Nov-18 20:30 033 2 gusting 6 -1.7
2017-Nov-18 20:20 035 1 gusting 4 -1.7
2017-Nov-18 20:10 041 -1.7
2017-Nov-18 20:00 038 1 gusting 4 -1.7
2017-Nov-18 19:50 055 -2.2
2017-Nov-18 19:40 055 -2.2
2017-Nov-18 19:30 051 0 gusting 4 -2.2
2017-Nov-18 19:20 078 -2.2
2017-Nov-18 19:10 078 -2.2
2017-Nov-18 19:00 078 -1.7
2017-Nov-18 18:50 078 -1.7
2017-Nov-18 18:40 059 1 gusting 4 -1.7
2017-Nov-18 18:30 057 0 gusting 5 -1.7
2017-Nov-18 18:20 060 1 gusting 3 -1.7
2017-Nov-18 18:10 064 1 gusting 3 -1.7
2017-Nov-18 18:00 125 -1.7
2017-Nov-18 17:50 169 -1.7
2017-Nov-18 17:40 178 -1.7
2017-Nov-18 17:30 178 -1.7
2017-Nov-18 17:20 215 -1.7
2017-Nov-18 17:10 209 -1.1
2017-Nov-18 17:00 204 -1.1
2017-Nov-18 16:50 204 -0.6
2017-Nov-18 16:40 204 -0.6
2017-Nov-18 16:30 204 -0.0
2017-Nov-18 16:20 196 0.6
2017-Nov-18 16:10 196 0.6
2017-Nov-18 16:00 196 0.6
2017-Nov-18 15:50 196 -0.0
2017-Nov-18 15:40 196 -0.0
2017-Nov-18 15:30 194 0.6
2017-Nov-18 15:20 194 0.6
2017-Nov-18 15:10 194 1.1
2017-Nov-18 15:00 194 1.1
2017-Nov-18 14:50 194 1.7
2017-Nov-18 14:40 194 1.7
2017-Nov-18 14:30 194 1.7
2017-Nov-18 14:20 194 1.7
2017-Nov-18 14:10 194 1.7
2017-Nov-18 14:00 194 1.7
2017-Nov-18 13:50 194 1.7
2017-Nov-18 13:40 194 1.7
2017-Nov-18 13:30 194 1.7
2017-Nov-18 13:20 194 1.7
2017-Nov-18 13:10 192 1.7
2017-Nov-18 13:00 242 2 gusting 5 1.7
2017-Nov-18 12:50 173 3 gusting 6 2.2
2017-Nov-18 12:40 213 2 gusting 7 2.2
2017-Nov-18 12:30 180 1 gusting 6 2.2
2017-Nov-18 12:20 176 0 gusting 6 2.2
2017-Nov-18 12:10 176 2.2
2017-Nov-18 12:00 194 2 gusting 6 2.2
2017-Nov-18 11:50 183 1 gusting 8 2.2
2017-Nov-18 11:40 156 2 gusting 6 2.2
2017-Nov-18 11:30 176 1 gusting 6 2.2
2017-Nov-18 11:20 186 0 gusting 6 2.2
2017-Nov-18 11:10 174 1 gusting 6 2.8
2017-Nov-18 11:00 213 1 gusting 6 2.8
2017-Nov-18 10:50 163 3 gusting 11 2.8
2017-Nov-18 10:40 251 4 gusting 11 2.8
2017-Nov-18 10:30 171 3 gusting 8 2.8
2017-Nov-18 10:20 184 4 gusting 10 2.8
2017-Nov-18 10:10 169 1 gusting 6 2.8
2017-Nov-18 10:00 201 1 gusting 10 2.8
2017-Nov-18 09:50 251 1 gusting 6 2.8
2017-Nov-18 09:40 192 0 gusting 8 2.8
2017-Nov-18 09:30 175 2 gusting 6 2.8
2017-Nov-18 09:20 213 0 gusting 6 2.8
2017-Nov-18 09:10 202 2 gusting 6 3.3
2017-Nov-18 09:00 209 2 gusting 6 3.3
2017-Nov-18 08:50 227 1 gusting 6 3.3
2017-Nov-18 08:40 210 0 gusting 7 3.9
2017-Nov-18 08:30 209 4 gusting 7 3.9
2017-Nov-18 08:20 244 4 gusting 9 4.4
2017-Nov-18 08:10 233 3 gusting 7 4.4
2017-Nov-18 08:00 234 1 gusting 6 4.4
2017-Nov-18 07:50 205 3 gusting 8 4.4
2017-Nov-18 07:40 198 2 gusting 7 4.4
2017-Nov-18 07:30 180 2 gusting 7 4.4
2017-Nov-18 07:20 232 0 gusting 7 5.0
2017-Nov-18 07:10 184 1 gusting 6 5.6
2017-Nov-18 07:00 128 5.0
2017-Nov-18 06:50 206 0 gusting 7 5.0
2017-Nov-18 06:40 190 0 gusting 7 5.0
2017-Nov-18 06:30 159 4 gusting 8 5.0
2017-Nov-18 06:20 267 4 gusting 8 4.4
2017-Nov-18 06:10 162 1 gusting 10 4.4
2017-Nov-18 06:00 213 3 gusting 10 4.4